Regional Weather Roundup
Issued by NWS State College, PA

Home | Current Version | Previous Version | Text Only | Print | Product List | Glossary On
Versions: 1 2 3 4 5 6 7 8 9 10 11 12 13 14 15 16 17 18 19 20 21 22 23 24 25 26 27 28 29 30 31 32 33 34 35 36 37 38 39 40 41 42 43 44 45 46 47 48 49 50
000
ASUS41 KCTP 021403
RWRCTP

REGIONAL WEATHER ROUNDUP
NATIONAL WEATHER SERVICE STATE COLLEGE PA
1000 AM EDT SUN AUG 02 2015

Note: "fair" indicates few or no clouds below 12,000 feet with no
significant weather and/or obstructions to visibility.

* = STATION THAT DOES NOT REPORT PRECIPITATION /E.G. RAIN...SNOW...ETC/
    THUNDER OR FOG.

PAZ002>004-007>009-013>016-020>023-029>032-021500-
WESTERN PENNSYLVANIA

CITY           SKY/WX    TMP DP  RH WIND       PRES   REMARKS
ERIE           SUNNY     76  59  55 SW8       29.92R
MEADVILLE      RAIN      72  58  61 W5        29.95S
FRANKLIN*      SUNNY     72  57  60 W9        29.97S
NEW CASTLE     FAIR      77  64  63 SW3       29.96S
BEAVER COUNTY  NOT AVBL
BUTLER*        SUNNY     73  61  64 W7        29.98S
PITTSBURGH INT MOSUNNY   75  58  55 SW12      29.96S
PITTSBURGH     CLOUDY    69  57  65 S8        29.98R
INDIANA*       CLOUDY    70  61  73 SW12      30.02S
LATROBE        PTSUNNY   72  59  64 SW12      30.00R
WASHINGTON CO* NOT AVBL
$$

PAZ004>006-010>012-017>019-024>028-033>037-041-042-045-046-049>053-021500-
CENTRAL PENNSYLVANIA

CITY           SKY/WX    TMP DP  RH WIND       PRES   REMARKS
BRADFORD       SUNNY     70  53  54 W10       29.96S
DUBOIS         SUNNY     71  59  65 W7        29.97R
CLEARFIELD     SUNNY     70  58  65 SW9       29.98S
JOHNSTOWN      PTSUNNY   68  55  63 SW8       30.03R
ALTOONA        PTSUNNY   73  58  59 W7        30.01R
STATE COLLEGE  MOSUNNY   70  61  73 SW6       29.98R
WILLIAMSPORT   SUNNY     70  60  70 CALM      29.95R
SELINSGROVE    SUNNY     74  63  68 VRB5      29.96S
FT INDIANTOWN  SUNNY     75  62  62 W2        29.96R
CAPITAL CITY   SUNNY     78  59  51 VRB6      29.96R
HARRISBURG     MOSUNNY   77  61  57 W6        29.95R
YORK           SUNNY     77  62  59 W5        29.96S
$$

PAZ038>040-043-044-047-048-054-055-060>062-067>071-021500-
EASTERN PENNSYLVANIA

CITY           SKY/WX    TMP DP  RH WIND       PRES   REMARKS
SCRANTON       SUNNY     72  61  68 VRB6      29.96R
MOUNT POCONO   SUNNY     73  53  49 W8        29.99R
ALLENTOWN      SUNNY     76  61  59 W5        29.96R
QUAKERTOWN*    SUNNY     77  59  53 SE3       29.97R
READING        SUNNY     77  60  55 CALM      29.95R
LANCASTER      SUNNY     76  61  59 W3        29.96S
COATESVILLE    SUNNY     77  59  53 W3        29.98S
POTTSTOWN      SUNNY     77  61  57 NW3       29.97R
BLUE BELL      SUNNY     79  61  53 CALM      29.95R
DOYLESTOWN     SUNNY     76  60  57 CALM      29.95R
WILLOW GROVE   NOT AVBL
NORTH PHILA    SUNNY     83  56  39 CALM      29.95S
PHILADELPHIA   MOSUNNY   83  59  44 CALM      29.94S
$$


USA.gov is the U.S. government's official web portal to all federal, state and local government web resources and services.